Content
SEND FEEDBACK

Daily
Averages
Monthly
Summary
United States of America

SAN RAFAEL, CALIFORNIA


Home > North America > United States > California
Elevation: 30 feet     Latitude: 37 58N     Longitude: 122 32W

WEATHER
 
SELECT A DAY
Number of Records: 164,720;   Date Range: 9/27/07 - 7/25/14
 
SHARE

PRINT THIS DATA

[ ← Previous Day ]
WEATHER ALMANAC - JANUARY 6, 2013
[ Next Day → ]
[ °C ]   °F
Weather ElementAverageHighLow
Temperature45.9 °F51.8 °F (11:55 am)44.6 °F (12:35 am)
Dewpoint45.4 °F48.2 °F (10:15 am)44.6 °F (12:35 am)
Humidity98.3 %100 % (12:35 am)87 % (10:55 am)
Barometer30.15 in30.20 in (9:55 am)30.09 in (12:35 am)
Wind Speed3.3 mph10.4 mph (5:35 am)
Weather ElementAverage
Visibility0.4 mi
Wind DirectionESE (120.6 °)

Weather ElementTotal
Precipitation0.01 in
Heating Degree Days16.8 (Base 65)
Averaged from 34 records on January 6, 2013
WEATHER CONDITIONS BREAKOUT
WIND DIRECTION BREAKOUT
WEATHER BY HOUR - JANUARY 6, 2013
[ °C ]   °F
Local TimeTemperatureDewpointHumidityBarometerVisibilityWind DirectionWind SpeedGust SpeedPrecipitationEventsConditions
12:35 AM44.6 °F44.6 °F100 %30.09 in0.2 miCalmRainLight Rain
12:55 AM44.6 °F44.6 °F100 %30.09 in0.2 miCalmRainLight Rain
1:15 AM44.6 °F44.6 °F100 %30.09 in0.5 miCalmFogFog
1:35 AM44.6 °F44.6 °F100 %30.09 in0.5 miCalmFogFog
2:15 AM44.6 °F44.6 °F100 %30.10 in0.5 miCalmFogFog
2:35 AM44.6 °F44.6 °F100 %30.11 in0.5 miCalmFogFog
2:55 AM44.6 °F44.6 °F100 %30.11 in0.5 miCalmFogFog
3:35 AM44.6 °F44.6 °F100 %30.12 in0.5 miSSW (210°)3.5 mphFogFog
3:55 AM44.6 °F44.6 °F100 %30.12 in0.5 miCalmFogFog
4:15 AM44.6 °F44.6 °F100 %30.12 in0.5 miSouth (180°)3.5 mphFogFog
4:35 AM44.6 °F44.6 °F100 %30.12 in0.5 miCalmFogFog
4:55 AM46.4 °F46.4 °F100 %30.13 in0.5 miWNW (300°)6.9 mphFogFog
5:15 AM46.4 °F46.4 °F100 %30.13 in0.5 miNNW (340°)8.1 mphRainLight Rain
5:35 AM46.4 °F46.4 °F100 %30.14 in0.5 miNW (320°)10.4 mphRainLight Rain
5:55 AM44.6 °F44.6 °F100 %30.14 in0.5 miNNW (330°)8.1 mph0.01 inRainLight Rain
6:15 AM44.6 °F44.6 °F100 %30.14 in0.5 miNNW (330°)6.9 mphFogFog
6:35 AM44.6 °F44.6 °F100 %30.14 in0.5 miCalmFogFog
6:55 AM44.6 °F44.6 °F100 %30.14 in0.5 miCalmFogFog
7:15 AM44.6 °F44.6 °F100 %30.15 in0.5 miENE (60°)5.8 mphFogFog
7:35 AM44.6 °F44.6 °F100 %30.15 in0.2 miCalmFogFog
7:55 AM44.6 °F44.6 °F100 %30.15 in0.2 miCalmFogFog
8:15 AM44.6 °F44.6 °F100 %30.16 in0.2 miSouth (190°)5.8 mphFogFog
8:35 AM44.6 °F44.6 °F100 %30.18 in0.2 miCalmFogFog
8:55 AM44.6 °F44.6 °F100 %30.19 in0.2 miCalmFogFog
9:15 AM44.6 °F44.6 °F100 %30.19 in0.2 miNorth (350°)5.8 mphFogFog
9:35 AM46.4 °F46.4 °F100 %30.19 in0.2 miNNW (330°)5.8 mphFogFog
9:55 AM46.4 °F46.4 °F100 %30.20 in0.2 miNNE (20°)5.8 mphFogFog
10:15 AM48.2 °F48.2 °F100 %30.20 in0.2 miNorth (360°)5.8 mphFogFog
10:35 AM48.2 °F48.2 °F100 %30.20 in0.2 miNE (40°)4.6 mphFogFog
10:55 AM50.0 °F46.4 °F87 %30.20 in0.2 miNorth (10°)3.5 mphFogFog
11:15 AM50.0 °F48.2 °F94 %30.19 in0.2 miNE (40°)4.6 mphFogFog
11:35 AM50.0 °F46.4 °F87 %30.19 in0.2 miNorth (10°)5.8 mphFogFog
11:55 AM51.8 °F48.2 °F88 %30.18 in0.2 miNorth (350°)5.8 mphFogFog
12:15 PM50.0 °F46.4 °F87 %30.17 in0.2 miNNW (330°)6.9 mphFogFog
Hourly data recorded from KDVO, located miles away from San Rafael, California







STORIES FROM OUR PARTNERS